Flag for U.S.A. Weather past 2 weeks in Kilgore, Texas, U.S.A.

Now
79 °F

Sunny.


Feels Like: 79 °F
Forecast: 51 / 78 °F
Wind: No wind

Location: Gregg County Airport

Current Time: Oct 20, 2014 at 4:51:44 PM

Latest Report: Oct 20, 2014 at 3:53 PM


Visibility: 10 mi

Pressure: 30.01 "Hg

Humidity: 41%

Dew point: 53 °F

Location of KilgoreLocation

Historic Weather in Kilgore — Graph

°F

Kilgore temperature yesterday

Maximum temperature yesterday: 74 °F (at 3:53 PM)
Minimum temperature yesterday: 53 °F (at 4:53 AM)
Average temperature yesterday: 62 °F

Past Weeks' High & Low Weather Summary

 TemperatureHumidityPressure
High89 °F (Oct 7, 3:53 PM)97% (Oct 12, 2:59 PM)30.19 "Hg (Oct 12, 2:59 PM)
Low49 °F (Oct 15, 2:53 AM)27% (Oct 16, 2:53 PM)29.63 "Hg (Oct 13, 3:53 AM)
Average69 °F74%29.95 "Hg
* Reported Oct 5 2:53 PM — Oct 20 2:53 PM, Kilgore, Weather by CustomWeather, © 2014

Note: Actual official high and low records may vary slightly from our data, if they occured in-between our weather recording intervals... More about our weather records

Advertising

Kilgore weather history for previous 24 hours

 ConditionsComfort  
Time TempWeatherWind HumidityBarometerVisibility
2:53 PM
Oct 20
79 °FSunny.5 mph42%30.02 "Hg10 mi
1:53 PM77 °FSunny.3 mph47%30.04 "Hg10 mi
12:53 PM75 °FSunny.7 mph48%30.07 "Hg10 mi
11:53 AM72 °FSunny.6 mph53%30.09 "Hg10 mi
10:53 AM68 °FSunny.3 mph59%30.11 "Hg10 mi
9:53 AM64 °FSunny.No wind70%30.11 "Hg10 mi
8:53 AM58 °FSunny.No wind90%30.10 "Hg10 mi
7:53 AM51 °FClear.No wind92%30.09 "Hg10 mi
6:53 AM51 °FClear.No wind92%30.08 "Hg10 mi
5:53 AM51 °FClear.No wind92%30.06 "Hg10 mi
4:53 AM52 °FClear.No wind93%30.04 "Hg10 mi
3:53 AM51 °FClear.No wind92%30.04 "Hg10 mi
2:53 AM53 °FClear.No wind93%30.05 "Hg10 mi
1:53 AM54 °FClear.No wind90%30.05 "Hg10 mi
12:53 AM53 °FClear.No wind93%30.06 "Hg10 mi
11:53 PM
Oct 19
55 °FClear.No wind90%30.06 "Hg10 mi
9:53 PM59 °FClear.No wind81%30.08 "Hg10 mi
8:53 PM58 °FClear.3 mph87%30.08 "Hg10 mi
7:53 PM61 °FClear.No wind78%30.08 "Hg10 mi
6:53 PM63 °FSunny.No wind75%30.06 "Hg10 mi
5:53 PM72 °FSunny.6 mph46%30.06 "Hg10 mi
4:53 PM73 °FSunny.No wind43%30.07 "Hg10 mi
Weather by CustomWeather, © 2014

See weather overviewHow to use our weather pages